,,,PA_Meas_PMT16A,,PR_Meas_QMR101_102,,RH_Meas_QMH101,,SR_Meas_QMS101,,TA_Meas_QMH101,,GenWind,,GenWind,
date,time,status,PA,status,PR,status,RH,status,SR,status,TA,status,DirAvg,status,SpdAvg,
2009-09-15, 00:00:04,VALID,1004.03,VALID,0,VALID,88.1365,VALID,0,VALID,25.6311,VALID,344,VALID,0.825391,
2009-09-15, 00:01:04,VALID,1004,VALID,0,VALID,88.1212,VALID,0,VALID,25.6311,VALID,358,VALID,0.641406,
2009-09-15, 00:02:04,VALID,1003.97,VALID,0,VALID,88.1365,VALID,0,VALID,25.6116,VALID,321,VALID,0.300781,
2009-09-15, 00:03:04,VALID,1003.96,VALID,0,VALID,88.2433,VALID,0,VALID,25.5902,VALID,323,VALID,0.215625,
2009-09-15, 00:04:04,VALID,1003.91,VALID,0,VALID,88.2356,VALID,0,VALID,25.5941,VALID,28,VALID,0.541016,
2009-09-15, 00:05:04,VALID,1003.89,VALID,0,VALID,88.289,VALID,0,VALID,25.5921,VALID,304,VALID,0.518359,
2009-09-15, 00:06:04,VALID,1003.87,VALID,0,VALID,88.2585,VALID,0,VALID,25.5921,VALID,349,VALID,0.729297,
2009-09-15, 00:07:04,VALID,1003.86,VALID,0,VALID,88.2356,VALID,0,VALID,25.5921,VALID,334,VALID,0.289453,
2009-09-15, 00:08:04,VALID,1003.88,VALID,0,VALID,88.2967,VALID,0,VALID,25.6116,VALID,334,VALID,0.194531,
2009-09-15, 00:09:04,VALID,1003.85,VALID,0,VALID,88.2433,VALID,0,VALID,25.5921,VALID,351,VALID,0.844531,
2009-09-15, 00:10:04,VALID,1003.86,VALID,0,VALID,88.2204,VALID,0,VALID,25.6116,VALID,348,VALID,0.731641,
2009-09-15, 00:11:04,VALID,1003.84,VALID,0,VALID,88.1136,VALID,0,VALID,25.6116,VALID,4,VALID,0.595703,
2009-09-15, 00:12:04,VALID,1003.85,VALID,0,VALID,88.1136,VALID,0,VALID,25.6116,VALID,346,VALID,0.766406,
2009-09-15, 00:13:04,VALID,1003.86,VALID,0,VALID,88.1365,VALID,0,VALID,25.5902,VALID,338,VALID,0.748047,
2009-09-15, 00:14:04,VALID,1003.86,VALID,0,VALID,88.1593,VALID,0.100563,VALID,25.5902,VALID,337,VALID,0.353906,
2009-09-15, 00:15:04,VALID,1003.83,VALID,0,VALID,88.0144,VALID,0,VALID,25.6097,VALID,336,VALID,0.788281,
2009-09-15, 00:16:04,VALID,1003.85,VALID,0,VALID,87.9076,VALID,0,VALID,25.6292,VALID,346,VALID,0.830859,
2009-09-15, 00:17:04,VALID,1003.84,VALID,0,VALID,87.8618,VALID,0,VALID,25.6486,VALID,356,VALID,0.417188,
2009-09-15, 00:18:04,VALID,1003.84,VALID,0,VALID,87.9,VALID,0.100563,VALID,25.6681,VALID,354,VALID,0.597656,
2009-09-15, 00:19:04,VALID,1003.78,VALID,0,VALID,87.7398,VALID,0,VALID,25.6681,VALID,355,VALID,0.909766,
2009-09-15, 00:20:04,VALID,1003.76,VALID,0,VALID,87.694,VALID,0,VALID,25.6876,VALID,351,VALID,0.641406,
2009-09-15, 00:21:04,VALID,1003.74,VALID,0,VALID,87.5719,VALID,0,VALID,25.6876,VALID,334,VALID,0.899219,
2009-09-15, 00:22:04,VALID,1003.73,VALID,0,VALID,87.5567,VALID,0.100563,VALID,25.7285,VALID,357,VALID,0.18125,
2009-09-15, 00:23:04,VALID,1003.73,VALID,0,VALID,87.694,VALID,0,VALID,25.6681,VALID,12,VALID,0.319531,
2009-09-15, 00:24:04,VALID,1003.7,VALID,0,VALID,87.7321,VALID,0.100563,VALID,25.6681,VALID,356,VALID,0.596484,
2009-09-15, 00:25:04,VALID,1003.69,VALID,0,VALID,87.694,VALID,0,VALID,25.67,VALID,350,VALID,0.979297,
2009-09-15, 00:26:04,VALID,1003.67,VALID,0,VALID,87.7169,VALID,0,VALID,25.67,VALID,347,VALID,0.560156,
2009-09-15, 00:27:04,VALID,1003.66,VALID,0,VALID,87.7016,VALID,0,VALID,25.6506,VALID,348,VALID,0.544922,
2009-09-15, 00:28:04,VALID,1003.66,VALID,0,VALID,87.7474,VALID,0,VALID,25.6915,VALID,2,VALID,0.272266,
2009-09-15, 00:29:04,VALID,1003.67,VALID,0,VALID,87.7016,VALID,0,VALID,25.6506,VALID,360,VALID,0.899219,
2009-09-15, 00:30:04,VALID,1003.62,VALID,0,VALID,87.6253,VALID,0,VALID,25.6506,VALID,351,VALID,1.34687,
2009-09-15, 00:31:04,VALID,1003.63,VALID,0,VALID,87.5338,VALID,0,VALID,25.67,VALID,347,VALID,0.761328,
2009-09-15, 00:32:04,VALID,1003.63,VALID,0,VALID,87.4956,VALID,0,VALID,25.67,VALID,360,VALID,1.11992,
2009-09-15, 00:33:04,VALID,1003.62,VALID,0,VALID,87.4956,VALID,0,VALID,25.67,VALID,344,VALID,0.604688,
2009-09-15, 00:34:04,VALID,1003.61,VALID,0,VALID,87.5033,VALID,0,VALID,25.67,VALID,348,VALID,0.518359,
2009-09-15, 00:35:04,VALID,1003.62,VALID,0,VALID,87.549,VALID,0,VALID,25.672,VALID,1,VALID,0.801562,
2009-09-15, 00:36:04,VALID,1003.66,VALID,0,VALID,87.488,VALID,0,VALID,25.6915,VALID,338,VALID,0.937891,
2009-09-15, 00:37:04,VALID,1003.64,VALID,0,VALID,87.5109,VALID,0,VALID,25.7109,VALID,335,VALID,0.191016,
2009-09-15, 00:38:04,VALID,1003.64,VALID,0,VALID,87.3507,VALID,0,VALID,25.6486,VALID,337,VALID,0.922656,
2009-09-15, 00:39:04,VALID,1003.65,VALID,0,VALID,87.3049,VALID,0,VALID,25.67,VALID,341,VALID,0.833594,
2009-09-15, 00:40:04,VALID,1003.62,VALID,0,VALID,87.3507,VALID,0,VALID,25.7109,VALID,350,VALID,0.506641,
2009-09-15, 00:41:04,VALID,1003.59,VALID,0,VALID,87.2744,VALID,0,VALID,25.709,VALID,332,VALID,1.08125,
2009-09-15, 00:42:04,VALID,1003.54,VALID,0,VALID,87.2286,VALID,0,VALID,25.67,VALID,348,VALID,0.445313,
2009-09-15, 00:43:04,VALID,1003.53,VALID,0,VALID,87.2286,VALID,0,VALID,25.6895,VALID,340,VALID,0.526953,
2009-09-15, 00:44:04,VALID,1003.53,VALID,0,VALID,87.2591,VALID,0,VALID,25.6486,VALID,344,VALID,0.408984,
2009-09-15, 00:45:04,VALID,1003.52,VALID,0,VALID,87.2286,VALID,0,VALID,25.6506,VALID,340,VALID,0.943359,
2009-09-15, 00:46:04,VALID,1003.53,VALID,0,VALID,87.2439,VALID,0,VALID,25.6895,VALID,342,VALID,0.595312,
2009-09-15, 00:47:04,VALID,1003.53,VALID,0,VALID,87.3125,VALID,0,VALID,25.67,VALID,356,VALID,0.524609,
2009-09-15, 00:48:04,VALID,1003.49,VALID,0,VALID,87.3125,VALID,0,VALID,25.67,VALID,354,VALID,0.859375,
2009-09-15, 00:49:04,VALID,1003.47,VALID,0,VALID,87.4117,VALID,0,VALID,25.6506,VALID,312,VALID,0.353516,
2009-09-15, 00:50:04,VALID,1003.45,VALID,0,VALID,87.4499,VALID,0,VALID,25.6311,VALID,352,VALID,0.40625,
2009-09-15, 00:51:04,VALID,1003.42,VALID,0,VALID,87.4575,VALID,0,VALID,25.6116,VALID,344,VALID,0.667578,
2009-09-15, 00:52:04,VALID,1003.43,VALID,0,VALID,87.488,VALID,0,VALID,25.5902,VALID,354,VALID,0.684375,
2009-09-15, 00:53:04,VALID,1003.37,VALID,0,VALID,87.5414,VALID,0,VALID,25.5921,VALID,355,VALID,0.74375,
2009-09-15, 00:54:04,VALID,1003.37,VALID,0,VALID,87.6635,VALID,0,VALID,25.5727,VALID,358,VALID,0.866406,
2009-09-15, 00:55:04,VALID,1003.34,VALID,0,VALID,87.6024,VALID,0,VALID,25.6136,VALID,348,VALID,0.932422,
2009-09-15, 00:56:04,VALID,1003.33,VALID,0,VALID,87.6101,VALID,0,VALID,25.6116,VALID,323,VALID,0.882813,
2009-09-15, 00:57:04,VALID,1003.34,VALID,0,VALID,87.4727,VALID,0,VALID,25.6116,VALID,337,VALID,0.464063,
2009-09-15, 00:58:04,VALID,1003.32,VALID,0,VALID,87.5109,VALID,0,VALID,25.6116,VALID,351,VALID,1.14375,
2009-09-15, 00:59:04,VALID,1003.29,VALID,0,VALID,87.4727,VALID,0,VALID,25.6311,VALID,358,VALID,0.586719,
2009-09-15, 01:00:04,VALID,1003.28,VALID,0,VALID,87.3659,VALID,0,VALID,25.633,VALID,325,VALID,0.857422,
2009-09-15, 01:01:04,VALID,1003.26,VALID,0,VALID,87.2896,VALID,0,VALID,25.6311,VALID,358,VALID,0.919141,
2009-09-15, 01:02:04,VALID,1003.27,VALID,0,VALID,87.3888,VALID,0,VALID,25.6311,VALID,358,VALID,0.787891,
2009-09-15, 01:03:04,VALID,1003.23,VALID,0,VALID,87.3812,VALID,0,VALID,25.6311,VALID,320,VALID,0.746094,
2009-09-15, 01:04:04,VALID,1003.18,VALID,0,VALID,87.343,VALID,0,VALID,25.6116,VALID,355,VALID,0.821875,
2009-09-15, 01:05:04,VALID,1003.23,VALID,0,VALID,87.2896,VALID,0,VALID,25.6116,VALID,352,VALID,0.872266,
2009-09-15, 01:06:04,VALID,1003.19,VALID,0,VALID,87.2744,VALID,0,VALID,25.6311,VALID,349,VALID,0.975391,
2009-09-15, 01:07:04,VALID,1003.16,VALID,0,VALID,87.2286,VALID,0,VALID,25.6311,VALID,355,VALID,0.384375,
2009-09-15, 01:08:04,VALID,1003.16,VALID,0,VALID,87.3202,VALID,0,VALID,25.6097,VALID,358,VALID,0.672656,
2009-09-15, 01:09:04,VALID,1003.17,VALID,0,VALID,87.3659,VALID,0,VALID,25.6097,VALID,289,VALID,0.567969,
2009-09-15, 01:10:04,VALID,1003.11,VALID,0,VALID,87.282,VALID,0,VALID,25.6097,VALID,351,VALID,1.02461,
2009-09-15, 01:11:04,VALID,1003.09,VALID,0,VALID,87.2896,VALID,0,VALID,25.6506,VALID,40,VALID,0.841406,
2009-09-15, 01:12:04,VALID,1003.08,VALID,0,VALID,87.1905,VALID,0,VALID,25.6506,VALID,345,VALID,1.05078,
2009-09-15, 01:13:04,VALID,1003.07,VALID,0,VALID,87.221,VALID,0,VALID,25.6292,VALID,348,VALID,0.517969,
2009-09-15, 01:14:04,VALID,1003.11,VALID,0,VALID,87.1294,VALID,0,VALID,25.6506,VALID,343,VALID,0.604688,
2009-09-15, 01:15:04,VALID,1003.09,VALID,0,VALID,87.1066,VALID,0,VALID,25.6097,VALID,359,VALID,1.02305,
2009-09-15, 01:16:04,VALID,1003.09,VALID,0,VALID,87.076,VALID,0,VALID,25.6506,VALID,341,VALID,0.683984,
2009-09-15, 01:17:04,VALID,1003.08,VALID,0,VALID,87.0379,VALID,0,VALID,25.6506,VALID,350,VALID,0.832031,
2009-09-15, 01:18:04,VALID,1003.07,VALID,0,VALID,87.1142,VALID,0,VALID,25.6292,VALID,351,VALID,0.255859,
2009-09-15, 01:19:04,VALID,1003.06,VALID,0,VALID,87.1294,VALID,0,VALID,25.6292,VALID,343,VALID,0.633203,
2009-09-15, 01:20:04,VALID,1003.09,VALID,0,VALID,87.0989,VALID,0,VALID,25.6311,VALID,328,VALID,0.563672,
2009-09-15, 01:21:04,VALID,1003.06,VALID,0,VALID,87.0837,VALID,0,VALID,25.6116,VALID,349,VALID,0.6375,
2009-09-15, 01:22:04,VALID,1003.08,VALID,0,VALID,87.0684,VALID,0,VALID,25.6097,VALID,348,VALID,0.322656,
2009-09-15, 01:23:04,VALID,1003.04,VALID,0,VALID,87.0913,VALID,0,VALID,25.6097,VALID,344,VALID,0.491016,
2009-09-15, 01:24:04,VALID,1003.07,VALID,0,VALID,87.1752,VALID,0,VALID,25.5902,VALID,355,VALID,0.248047,
2009-09-15, 01:25:04,VALID,1003.06,VALID,0,VALID,87.221,VALID,0,VALID,25.5921,VALID,6,VALID,0.741016,
2009-09-15, 01:26:04,VALID,1003.08,VALID,0,VALID,87.343,VALID,0,VALID,25.5707,VALID,309,VALID,0.33125,
2009-09-15, 01:27:04,VALID,1003.04,VALID,0,VALID,87.4193,VALID,0,VALID,25.5513,VALID,322,VALID,0.0652344,
2009-09-15, 01:28:04,VALID,1003.08,VALID,0,VALID,87.427,VALID,0,VALID,25.5318,VALID,324,VALID,0.456641,
2009-09-15, 01:29:04,VALID,1003.06,VALID,0,VALID,87.4117,VALID,0,VALID,25.5532,VALID,356,VALID,1.05977,
2009-09-15, 01:30:04,VALID,1003.07,VALID,0,VALID,87.5109,VALID,0,VALID,25.5532,VALID,336,VALID,0.535156,
2009-09-15, 01:31:04,VALID,1003.05,VALID,0,VALID,87.4727,VALID,0,VALID,25.5532,VALID,353,VALID,0.644141,
2009-09-15, 01:32:04,VALID,1003.03,VALID,0,VALID,87.4575,VALID,0,VALID,25.5337,VALID,347,VALID,0.478906,
2009-09-15, 01:33:04,VALID,1003.04,VALID,0,VALID,87.4499,VALID,0,VALID,25.5123,VALID,349,VALID,0.623438,
2009-09-15, 01:34:04,VALID,1003,VALID,0,VALID,87.343,VALID,0,VALID,25.5123,VALID,339,VALID,0.773438,
2009-09-15, 01:35:04,VALID,1003,VALID,0,VALID,87.3888,VALID,0,VALID,25.5337,VALID,343,VALID,0.517578,
2009-09-15, 01:36:04,VALID,1002.96,VALID,0,VALID,87.4117,VALID,0,VALID,25.5337,VALID,331,VALID,0.348047,
2009-09-15, 01:37:04,VALID,1002.95,VALID,0,VALID,87.5185,VALID,0,VALID,25.5123,VALID,338,VALID,0.465625,
2009-09-15, 01:38:04,VALID,1002.94,VALID,0,VALID,87.5643,VALID,0,VALID,25.4734,VALID,343,VALID,0.583594,
2009-09-15, 01:39:04,VALID,1002.9,VALID,0,VALID,87.5643,VALID,0,VALID,25.4948,VALID,355,VALID,0.933984,
2009-09-15, 01:40:04,VALID,1002.89,VALID,0,VALID,87.6482,VALID,0.100563,VALID,25.4734,VALID,355,VALID,0.71875,
2009-09-15, 01:41:04,VALID,1002.86,VALID,0,VALID,87.6177,VALID,0,VALID,25.4539,VALID,358,VALID,0.896094,
2009-09-15, 01:42:04,VALID,1002.84,VALID,0,VALID,87.5033,VALID,0,VALID,25.5162,VALID,352,VALID,0.626562,
2009-09-15, 01:43:04,VALID,1002.88,VALID,0,VALID,87.488,VALID,0,VALID,25.4948,VALID,354,VALID,0.507031,
2009-09-15, 01:44:04,VALID,1002.86,VALID,0,VALID,87.5414,VALID,0,VALID,25.4948,VALID,353,VALID,0.564453,
2009-09-15, 01:45:04,VALID,1002.84,VALID,0,VALID,87.6024,VALID,0,VALID,25.4753,VALID,1,VALID,0.716797,
2009-09-15, 01:46:04,VALID,1002.82,VALID,0,VALID,87.5795,VALID,0,VALID,25.4363,VALID,341,VALID,0.543359,
2009-09-15, 01:47:04,VALID,1002.8,VALID,0,VALID,87.6177,VALID,0,VALID,25.4149,VALID,357,VALID,0.770312,
2009-09-15, 01:48:04,VALID,1002.77,VALID,0,VALID,87.5795,VALID,0,VALID,25.4363,VALID,347,VALID,0.492188,
2009-09-15, 01:49:04,VALID,1002.74,VALID,0,VALID,87.5261,VALID,0,VALID,25.4558,VALID,349,VALID,0.390234,
2009-09-15, 01:50:04,VALID,1002.75,VALID,0,VALID,87.5338,VALID,0,VALID,25.4558,VALID,3,VALID,0.459375,
2009-09-15, 01:51:04,VALID,1002.78,VALID,0,VALID,87.5261,VALID,0,VALID,25.4363,VALID,3,VALID,0.352734,
2009-09-15, 01:52:04,VALID,1002.79,VALID,0,VALID,87.5261,VALID,0,VALID,25.4363,VALID,350,VALID,0.710938,
2009-09-15, 01:53:04,VALID,1002.77,VALID,0,VALID,87.4422,VALID,0,VALID,25.4149,VALID,350,VALID,0.371484,
2009-09-15, 01:54:04,VALID,1002.83,VALID,0,VALID,87.3965,VALID,0,VALID,25.4363,VALID,350,VALID,0.429688,
2009-09-15, 01:55:04,VALID,1002.83,VALID,0,VALID,87.3888,VALID,0,VALID,25.4149,VALID,350,VALID,0.279297,
2009-09-15, 01:56:04,VALID,1002.79,VALID,0,VALID,87.4193,VALID,0,VALID,25.4753,VALID,352,VALID,0.975781,
2009-09-15, 01:57:04,VALID,1002.8,VALID,0,VALID,87.1752,VALID,0,VALID,25.5142,VALID,357,VALID,0.662109,
2009-09-15, 01:58:04,VALID,1002.81,VALID,0,VALID,86.954,VALID,0,VALID,25.5142,VALID,354,VALID,0.604688,
2009-09-15, 01:59:04,VALID,1002.84,VALID,0,VALID,86.9998,VALID,0,VALID,25.5337,VALID,355,VALID,0.5125,
2009-09-15, 02:00:04,VALID,1002.84,VALID,0,VALID,86.9998,VALID,0,VALID,25.5123,VALID,346,VALID,0.366016,
2009-09-15, 02:01:04,VALID,1002.87,VALID,0,VALID,86.9464,VALID,0,VALID,25.5337,VALID,353,VALID,0.625781,
2009-09-15, 02:02:04,VALID,1002.86,VALID,0,VALID,86.9235,VALID,0,VALID,25.5318,VALID,344,VALID,0.394922,
2009-09-15, 02:03:04,VALID,1002.88,VALID,0,VALID,86.7175,VALID,0,VALID,25.5727,VALID,345,VALID,0.797656,
2009-09-15, 02:04:04,VALID,1002.9,VALID,0,VALID,86.687,VALID,0,VALID,25.5921,VALID,352,VALID,0.315234,
2009-09-15, 02:05:04,VALID,1002.88,VALID,0,VALID,86.5496,VALID,0,VALID,25.6311,VALID,353,VALID,0.726953,
2009-09-15, 02:06:04,VALID,1002.85,VALID,0,VALID,86.3818,VALID,0,VALID,25.6292,VALID,350,VALID,0.390625,
2009-09-15, 02:07:04,VALID,1002.84,VALID,0,VALID,86.0461,VALID,0,VALID,25.6681,VALID,344,VALID,0.569922,
2009-09-15, 02:08:04,VALID,1002.84,VALID,0,VALID,85.9088,VALID,0,VALID,25.7071,VALID,327,VALID,0.812891,
2009-09-15, 02:09:04,VALID,1002.84,VALID,0,VALID,85.802,VALID,0,VALID,25.7674,VALID,344,VALID,0.597656,
2009-09-15, 02:10:04,VALID,1002.81,VALID,0,VALID,85.6494,VALID,0,VALID,25.746,VALID,341,VALID,0.601953,
2009-09-15, 02:11:04,VALID,1002.81,VALID,0,VALID,85.6418,VALID,0,VALID,25.7869,VALID,1,VALID,0.3875,
2009-09-15, 02:12:04,VALID,1002.75,VALID,0,VALID,85.5579,VALID,0,VALID,25.746,VALID,352,VALID,0.941406,
2009-09-15, 02:13:04,VALID,1002.75,VALID,0,VALID,85.6342,VALID,0,VALID,25.7674,VALID,349,VALID,0.373437,
2009-09-15, 02:14:04,VALID,1002.74,VALID,0,VALID,85.5655,VALID,0,VALID,25.7869,VALID,353,VALID,0.442969,
2009-09-15, 02:15:04,VALID,1002.76,VALID,0,VALID,85.6189,VALID,0,VALID,25.7869,VALID,350,VALID,0.758203,
2009-09-15, 02:16:04,VALID,1002.75,VALID,0,VALID,85.5655,VALID,0,VALID,25.7869,VALID,344,VALID,0.739062,
2009-09-15, 02:17:04,VALID,1002.72,VALID,0,VALID,85.6723,VALID,0,VALID,25.8083,VALID,359,VALID,0.674219,
2009-09-15, 02:18:04,VALID,1002.73,VALID,0,VALID,85.6723,VALID,0,VALID,25.8083,VALID,357,VALID,0.804297,
2009-09-15, 02:19:04,VALID,1002.71,VALID,0,VALID,85.7868,VALID,0,VALID,25.7869,VALID,354,VALID,0.561719,
2009-09-15, 02:20:04,VALID,1002.67,VALID,0,VALID,85.6266,VALID,0,VALID,25.7674,VALID,1,VALID,1.10938,
2009-09-15, 02:21:04,VALID,1002.66,VALID,0,VALID,85.6342,VALID,0,VALID,25.7869,VALID,359,VALID,1.05156,
2009-09-15, 02:22:04,VALID,1002.64,VALID,0,VALID,85.4358,VALID,0,VALID,25.8064,VALID,349,VALID,0.717969,
2009-09-15, 02:23:04,VALID,1002.63,VALID,0,VALID,85.4129,VALID,0,VALID,25.8259,VALID,343,VALID,0.954687,
2009-09-15, 02:24:04,VALID,1002.64,VALID,0,VALID,85.4282,VALID,0,VALID,25.8259,VALID,360,VALID,0.439844,
2009-09-15, 02:25:04,VALID,1002.63,VALID,0,VALID,85.329,VALID,0,VALID,25.8259,VALID,359,VALID,1.14609,
2009-09-15, 02:26:04,VALID,1002.63,VALID,0,VALID,85.3824,VALID,0,VALID,25.8453,VALID,337,VALID,0.489844,
2009-09-15, 02:27:04,VALID,1002.6,VALID,0,VALID,85.3595,VALID,0,VALID,25.8044,VALID,5,VALID,0.666797,
2009-09-15, 02:28:04,VALID,1002.56,VALID,0,VALID,85.3214,VALID,0,VALID,25.8239,VALID,356,VALID,0.946094,
2009-09-15, 02:29:04,VALID,1002.55,VALID,0,VALID,85.3138,VALID,0,VALID,25.8453,VALID,341,VALID,0.805859,
2009-09-15, 02:30:04,VALID,1002.51,VALID,0,VALID,85.329,VALID,0,VALID,25.8453,VALID,352,VALID,0.753906,
2009-09-15, 02:31:04,VALID,1002.5,VALID,0,VALID,85.4282,VALID,0,VALID,25.8668,VALID,346,VALID,0.666797,
2009-09-15, 02:32:04,VALID,1002.48,VALID,0,VALID,85.4969,VALID,0,VALID,25.8259,VALID,345,VALID,0.263672,
2009-09-15, 02:33:04,VALID,1002.49,VALID,0,VALID,85.6647,VALID,0,VALID,25.8064,VALID,345,VALID,0.358594,
2009-09-15, 02:34:04,VALID,1002.48,VALID,0,VALID,85.8325,VALID,0,VALID,25.7869,VALID,21,VALID,0.296875,
2009-09-15, 02:35:04,VALID,1002.47,VALID,0,VALID,85.8478,VALID,0,VALID,25.748,VALID,346,VALID,0.795703,
2009-09-15, 02:36:04,VALID,1002.46,VALID,0,VALID,85.8859,VALID,0,VALID,25.7265,VALID,348,VALID,0.588281,
2009-09-15, 02:37:04,VALID,1002.46,VALID,0,VALID,85.9546,VALID,0,VALID,25.7285,VALID,353,VALID,0.610937,
2009-09-15, 02:38:04,VALID,1002.45,VALID,0,VALID,86.0233,VALID,0,VALID,25.7285,VALID,346,VALID,0.784375,
2009-09-15, 02:39:04,VALID,1002.46,VALID,0,VALID,86.069,VALID,0,VALID,25.709,VALID,351,VALID,0.403906,
2009-09-15, 02:40:04,VALID,1002.5,VALID,0,VALID,86.0614,VALID,0,VALID,25.6876,VALID,351,VALID,0.598437,
2009-09-15, 02:41:04,VALID,1002.53,VALID,0,VALID,86.2369,VALID,0,VALID,25.6486,VALID,351,VALID,0.623047,
2009-09-15, 02:42:04,VALID,1002.52,VALID,0,VALID,86.4276,VALID,0,VALID,25.6311,VALID,342,VALID,0.500391,
2009-09-15, 02:43:04,VALID,1002.53,VALID,0,VALID,86.5802,VALID,0,VALID,25.5902,VALID,342,VALID,0.553125,
2009-09-15, 02:44:04,VALID,1002.54,VALID,0,VALID,86.7099,VALID,0,VALID,25.5921,VALID,342,VALID,0.496484,
2009-09-15, 02:45:04,VALID,1002.54,VALID,0,VALID,86.9921,VALID,0,VALID,25.5532,VALID,356,VALID,0.422656,
2009-09-15, 02:46:04,VALID,1002.54,VALID,0,VALID,87.1447,VALID,0,VALID,25.4948,VALID,337,VALID,0.387109,
2009-09-15, 02:47:04,VALID,1002.53,VALID,0,VALID,87.282,VALID,0,VALID,25.4967,VALID,338,VALID,0.375781,
2009-09-15, 02:48:04,VALID,1002.49,VALID,0,VALID,87.427,VALID,0,VALID,25.4558,VALID,339,VALID,0.459766,
2009-09-15, 02:49:04,VALID,1002.49,VALID,0,VALID,87.4804,VALID,0,VALID,25.4169,VALID,339,VALID,0.180078,
2009-09-15, 02:50:04,VALID,1002.46,VALID,0,VALID,87.6024,VALID,0,VALID,25.4383,VALID,7,VALID,0.832031,
2009-09-15, 02:51:04,VALID,1002.48,VALID,0,VALID,87.3278,VALID,0,VALID,25.4948,VALID,347,VALID,0.720703,
2009-09-15, 02:52:04,VALID,1002.48,VALID,0,VALID,87.1142,VALID,0,VALID,25.5142,VALID,315,VALID,0.239453,
2009-09-15, 02:53:04,VALID,1002.48,VALID,0,VALID,87.1142,VALID,0,VALID,25.5337,VALID,327,VALID,0.375781,
2009-09-15, 02:54:04,VALID,1002.46,VALID,0,VALID,87.1523,VALID,0,VALID,25.5337,VALID,345,VALID,0.465625,
2009-09-15, 02:55:04,VALID,1002.43,VALID,0,VALID,87.1218,VALID,0,VALID,25.5551,VALID,349,VALID,0.476172,
2009-09-15, 02:56:04,VALID,1002.37,VALID,0,VALID,87.221,VALID,0,VALID,25.5142,VALID,352,VALID,0.489844,
2009-09-15, 02:57:04,VALID,1002.34,VALID,0,VALID,87.2668,VALID,0,VALID,25.5123,VALID,355,VALID,0.980078,
2009-09-15, 02:58:04,VALID,1002.32,VALID,0,VALID,87.2286,VALID,0,VALID,25.5318,VALID,349,VALID,0.717188,
2009-09-15, 02:59:04,VALID,1002.23,VALID,0,VALID,87.221,VALID,0,VALID,25.4909,VALID,340,VALID,0.583984,
2009-09-15, 03:00:04,VALID,1002.2,VALID,0,VALID,87.2973,VALID,0,VALID,25.5123,VALID,336,VALID,0.842969,
2009-09-15, 03:01:04,VALID,1002.17,VALID,0,VALID,87.3812,VALID,0,VALID,25.4928,VALID,351,VALID,0.771875,
2009-09-15, 03:02:04,VALID,1002.15,VALID,0,VALID,87.4193,VALID,0.100563,VALID,25.5142,VALID,338,VALID,0.665625,
2009-09-15, 03:03:04,VALID,1002.15,VALID,0,VALID,87.343,VALID,0,VALID,25.4909,VALID,347,VALID,0.870313,
2009-09-15, 03:04:04,VALID,1002.18,VALID,0,VALID,87.16,VALID,0.100563,VALID,25.5318,VALID,360,VALID,1.0918,
2009-09-15, 03:05:04,VALID,1002.18,VALID,0,VALID,86.9921,VALID,0.100563,VALID,25.5707,VALID,339,VALID,0.785156,
2009-09-15, 03:06:04,VALID,1002.16,VALID,0,VALID,86.8624,VALID,0,VALID,25.5707,VALID,346,VALID,1.33867,
2009-09-15, 03:07:04,VALID,1002.2,VALID,0,VALID,86.5573,VALID,0,VALID,25.6292,VALID,357,VALID,0.991406,
2009-09-15, 03:08:04,VALID,1002.23,VALID,0,VALID,86.2979,VALID,0,VALID,25.709,VALID,345,VALID,0.642969,
2009-09-15, 03:09:04,VALID,1002.23,VALID,0,VALID,86.2064,VALID,0,VALID,25.7071,VALID,1,VALID,0.752734,
2009-09-15, 03:10:04,VALID,1002.27,VALID,0,VALID,86.1529,VALID,0,VALID,25.7265,VALID,3,VALID,0.642969,
2009-09-15, 03:11:04,VALID,1002.27,VALID,0,VALID,86.1377,VALID,0,VALID,25.6856,VALID,337,VALID,0.525391,
2009-09-15, 03:12:04,VALID,1002.29,VALID,0,VALID,86.0461,VALID,0,VALID,25.7071,VALID,345,VALID,0.739062,
2009-09-15, 03:13:04,VALID,1002.29,VALID,0,VALID,85.8859,VALID,0.100563,VALID,25.7265,VALID,351,VALID,0.734766,
2009-09-15, 03:14:04,VALID,1002.29,VALID,0,VALID,85.8478,VALID,0,VALID,25.7265,VALID,347,VALID,0.375,
2009-09-15, 03:15:04,VALID,1002.32,VALID,0,VALID,85.7562,VALID,0,VALID,25.746,VALID,344,VALID,0.682813,
2009-09-15, 03:16:04,VALID,1002.3,VALID,0,VALID,85.8173,VALID,0.100563,VALID,25.746,VALID,347,VALID,0.798437,
2009-09-15, 03:17:04,VALID,1002.28,VALID,0,VALID,85.8936,VALID,0.100563,VALID,25.7265,VALID,356,VALID,0.883984,
2009-09-15, 03:18:04,VALID,1002.25,VALID,0,VALID,85.8631,VALID,0,VALID,25.7071,VALID,339,VALID,0.788281,
2009-09-15, 03:19:04,VALID,1002.24,VALID,0,VALID,85.8936,VALID,0,VALID,25.709,VALID,352,VALID,0.725391,
2009-09-15, 03:20:04,VALID,1002.19,VALID,0,VALID,86.008,VALID,0,VALID,25.6876,VALID,1,VALID,0.753516,
2009-09-15, 03:21:04,VALID,1002.22,VALID,0,VALID,86.1072,VALID,0,VALID,25.6486,VALID,355,VALID,0.699609,
2009-09-15, 03:22:04,VALID,1002.22,VALID,0,VALID,86.2521,VALID,0.100563,VALID,25.6097,VALID,360,VALID,0.790234,
2009-09-15, 03:23:04,VALID,1002.23,VALID,0,VALID,86.3742,VALID,0.100563,VALID,25.5688,VALID,357,VALID,0.653906,
2009-09-15, 03:24:04,VALID,1002.25,VALID,0,VALID,86.5573,VALID,0,VALID,25.5513,VALID,357,VALID,0.725391,
2009-09-15, 03:25:04,VALID,1002.27,VALID,0,VALID,86.7022,VALID,0,VALID,25.5123,VALID,354,VALID,0.742969,
2009-09-15, 03:26:04,VALID,1002.26,VALID,0,VALID,86.8167,VALID,0.100563,VALID,25.5123,VALID,345,VALID,0.644922,
2009-09-15, 03:27:04,VALID,1002.27,VALID,0,VALID,86.9464,VALID,0,VALID,25.4734,VALID,346,VALID,0.616406,
2009-09-15, 03:28:04,VALID,1002.26,VALID,0,VALID,87.0608,VALID,0.100563,VALID,25.4539,VALID,350,VALID,0.887109,
2009-09-15, 03:29:04,VALID,1002.22,VALID,0,VALID,86.9998,VALID,0.100563,VALID,25.4734,VALID,348,VALID,0.671484,
2009-09-15, 03:30:04,VALID,1002.23,VALID,0,VALID,86.9311,VALID,0.100563,VALID,25.4734,VALID,352,VALID,0.551953,
2009-09-15, 03:31:04,VALID,1002.22,VALID,0,VALID,86.8624,VALID,0.100563,VALID,25.4928,VALID,16,VALID,0.459766,
2009-09-15, 03:32:04,VALID,1002.24,VALID,0,VALID,86.7633,VALID,0.100563,VALID,25.4714,VALID,16,VALID,0.0304688,
2009-09-15, 03:33:04,VALID,1002.29,VALID,0,VALID,86.8624,VALID,0.100563,VALID,25.4734,VALID,6,VALID,0.399609,
2009-09-15, 03:34:04,VALID,1002.3,VALID,0,VALID,86.8853,VALID,0,VALID,25.4734,VALID,357,VALID,0,
2009-09-15, 03:35:04,VALID,1002.34,VALID,0,VALID,86.954,VALID,0.100563,VALID,25.4734,VALID,357,VALID,0.15,
2009-09-15, 03:36:04,VALID,1002.37,VALID,0,VALID,86.9921,VALID,0,VALID,25.4363,VALID,357,VALID,0.205859,
2009-09-15, 03:37:04,VALID,1002.36,VALID,0,VALID,87.0989,VALID,0,VALID,25.4149,VALID,357,VALID,0.294531,
2009-09-15, 03:38:04,VALID,1002.37,VALID,0,VALID,87.2057,VALID,0.100563,VALID,25.4169,VALID,357,VALID,0.0941406,
2009-09-15, 03:39:04,VALID,1002.35,VALID,0,VALID,87.343,VALID,0,VALID,25.3974,VALID,356,VALID,0.129688,
2009-09-15, 03:40:04,VALID,1002.34,VALID,0,VALID,87.427,VALID,0,VALID,25.3565,VALID,354,VALID,0,
2009-09-15, 03:41:04,VALID,1002.36,VALID,0,VALID,87.4956,VALID,0.100563,VALID,25.3565,VALID,354,VALID,0.140625,
2009-09-15, 03:42:04,VALID,1002.34,VALID,0,VALID,87.6329,VALID,0,VALID,25.3195,VALID,354,VALID,0.41875,
2009-09-15, 03:43:04,VALID,1002.32,VALID,0,VALID,87.7779,VALID,0,VALID,25.3,VALID,354,VALID,0.132031,